Estherville, IA

8:57 PM CST on February 13, 2016 (GMT -0600)
Estherville Municipal

Weather History for KEST - April, 2013

Change the Weather History Date:

Friday, April 26, 2013

  Actual Average Record
Temperature  
Mean Temperature 57 °F 51 °F  
Max Temperature 73 °F 64 °F - ()
Min Temperature 41 °F 39 °F - ()
Degree Days  
Heating Degree Days 8 14  
Month to date heating degree days 714 495  
Since 1 July heating degree days 7552 7410  
Cooling Degree Days 0 0  
Month to date cooling degree days 0 0  
Year to date cooling degree days 0 0  
Growing Degree Days 8 (Base 50)    
Moisture  
Dew Point 36 °F    
Average Humidity 52    
Maximum Humidity 82    
Minimum Humidity 22    
Precipitation  
Precipitation 0.00 in 0.12 in - ()
Month to date precipitation 4.20 2.79  
Sea Level Pressure  
Sea Level Pressure 30.05 in    
Wind  
Wind Speed 12 mph (WSW)    
Max Wind Speed 24 mph    
Max Gust Speed 29 mph    
Visibility 10 miles    
Events      
T = Trace of Precipitation, MM = Missing Value Source: NWS Daily Summary

Daily Weather History Graph

Daily Weather History Graph

Search for Another Location

Airport or City:

Trip Planner

Search our weather history database for the weather conditions in past years. The results will help you decide how hot, cold, wet, or windy it might be!

Date:

Astronomy

Apr. 26, 2013 Rise Set
Actual Time 6:18 AM CDT 8:15 PM CDT
Civil Twilight 5:48 AM CDT 8:46 PM CDT
Nautical Twilight 5:10 AM CDT 9:24 PM CDT
Astronomical Twilight 4:29 AM CDT 10:05 PM CDT
Moon 9:41 PM CDT (4/26) 6:45 AM CDT (4/26)
Length of Visible Light 14h 58m
Length of Day
13h 56m
Full, 99% of the Moon is Illuminated
Apr 26
Full
May 2
Last Quarter
May 9
New
May 17
First Quarter
May 24
Full

Hourly Weather History & Observations

Time (CDT) Temp. Windchill Dew Point Humidity Pressure Visibility Wind Dir Wind Speed Gust Speed Precip Events Conditions
12:52 AM 50.0 °F - 35.1 °F 57% 30.03 in 10.0 mi South 19.6 mph 27.6 mph N/A   Mostly Cloudy
1:52 AM 48.0 °F - 37.0 °F 66% 30.00 in 10.0 mi South 23.0 mph 27.6 mph N/A   Partly Cloudy
2:52 AM 48.0 °F - 37.0 °F 66% 30.00 in 10.0 mi South 18.4 mph - N/A   Clear
3:52 AM 46.0 °F 39.9 °F 37.0 °F 71% 29.99 in 10.0 mi South 13.8 mph - N/A   Clear
4:52 AM 45.0 °F 38.9 °F 37.0 °F 74% 29.99 in 10.0 mi South 12.7 mph - N/A   Clear
5:52 AM 42.1 °F 35.2 °F 37.0 °F 82% 29.99 in 10.0 mi South 12.7 mph - N/A   Clear
6:52 AM 42.1 °F 35.2 °F 37.0 °F 82% 30.00 in 10.0 mi South 12.7 mph - N/A   Clear
7:52 AM 46.0 °F 39.6 °F 37.9 °F 73% 30.01 in 10.0 mi South 15.0 mph - N/A   Clear
8:52 AM 53.1 °F - 39.0 °F 59% 30.02 in 10.0 mi SSW 18.4 mph - N/A   Clear
9:52 AM 57.9 °F - 39.0 °F 49% 30.02 in 10.0 mi SW 21.9 mph 28.8 mph N/A   Clear
10:52 AM 62.1 °F - 39.9 °F 44% 30.05 in 10.0 mi WSW 15.0 mph - N/A   Clear
11:52 AM 64.9 °F - 37.0 °F 36% 30.07 in 10.0 mi SW 11.5 mph - N/A   Clear
12:52 PM 68.0 °F - 37.0 °F 32% 30.07 in 10.0 mi West 10.4 mph - N/A   Clear
1:52 PM 70.0 °F - 36.0 °F 29% 30.06 in 10.0 mi WNW 10.4 mph - N/A   Clear
2:52 PM 73.0 °F - 35.1 °F 25% 30.05 in 10.0 mi NNW 10.4 mph 17.3 mph N/A   Clear
3:52 PM 72.0 °F - 33.1 °F 24% 30.05 in 10.0 mi Variable 6.9 mph 17.3 mph N/A   Clear
4:52 PM 73.0 °F - 32.0 °F 22% 30.06 in 10.0 mi NNW 10.4 mph - N/A   Clear
5:52 PM 72.0 °F - 33.1 °F 24% 30.07 in 10.0 mi NW 11.5 mph 18.4 mph N/A   Clear
6:52 PM 70.0 °F - 33.1 °F 26% 30.09 in 10.0 mi NNW 12.7 mph - N/A   Clear
7:52 PM 64.0 °F - 37.0 °F 37% 30.10 in 10.0 mi NNW 12.7 mph - N/A   Clear
8:52 PM 57.0 °F - 37.0 °F 47% 30.12 in 10.0 mi NNW 10.4 mph - N/A   Clear
9:52 PM 50.0 °F - 36.0 °F 59% 30.14 in 10.0 mi NW 8.1 mph - N/A   Clear
10:52 PM 48.9 °F - 35.1 °F 59% 30.14 in 10.0 mi NW 4.6 mph - N/A   Clear
11:52 PM 48.0 °F - 36.0 °F 63% 30.15 in 10.0 mi NNW 6.9 mph - N/A   Clear